Epoch 2018 Nov. 18.0 TT = JDT 2458440.5 T 2018 Dec. 3.50740 TT MPCW q 0.3869462 (2000.0) P Q z -0.0013397 Peri. 88.77451 +0.61752117 +0.63893372 +/-0.0000360 Node 128.72481 +0.24562203 -0.71069182 e 1.0005184 Incl. 143.98533 +0.74721979 -0.29441610 From 696 observations 2018 Nov. 8-Dec. 15, mean residual 0".6.
m1 = 13.5 + 5 logΔ + 15.0 log r(t + 10)